| time (UTC) | temp C | wind direction | speed KPH | gust KPH | rain 1hr cm | rain 24hr cm | rain mn cm | humidity % | barometer mb |
| 20260506180023 | 20 | 19 | 0.0 | 6.4 | 0.00 | 0.00 | 0.00 | 55 | 1020.4 |
| 20260506175559 | 20 | 206 | 0.0 | 6.4 | 0.00 | 0.00 | 0.00 | 55 | 1020.4 |
| 20260506175043 | 19 | 144 | 0.0 | 3.2 | 0.00 | 0.00 | 0.00 | 55 | 1020.4 |
| 20260506174524 | 18 | 236 | 0.0 | 3.2 | 0.00 | 0.00 | 0.00 | 55 | 1020.4 |
| 20260506174103 | 18 | 233 | 0.0 | 3.2 | 0.00 | 0.00 | 0.00 | 54 | 1020.4 |
| 20260506173541 | 19 | 342 | 1.6 | 3.2 | 0.00 | 0.00 | 0.00 | 53 | 1020.5 |
| 20260506173023 | 19 | 238 | 0.0 | 4.8 | 0.00 | 0.00 | 0.00 | 53 | 1020.5 |
| 20260506172606 | 18 | 236 | 1.6 | 4.8 | 0.00 | 0.00 | 0.00 | 54 | 1020.6 |
| 20260506172045 | 18 | 5 | 0.0 | 3.2 | 0.00 | 0.00 | 0.00 | 53 | 1020.6 |
| 20260506171534 | 18 | 21 | 0.0 | 4.8 | 0.00 | 0.00 | 0.00 | 53 | 1020.6 |
| 20260506171105 | 18 | 313 | 0.0 | 6.4 | 0.00 | 0.00 | 0.00 | 53 | 1020.6 |
| 20260506170543 | 18 | 277 | 0.0 | 6.4 | 0.00 | 0.00 | 0.00 | 52 | 1020.7 |
| 20260506170024 | 18 | 282 | 0.0 | 4.8 | 0.00 | 0.00 | 0.00 | 53 | 1020.6 |
| 20260506165503 | 18 | 233 | 0.0 | 3.2 | 0.00 | 0.00 | 0.00 | 52 | 1020.7 |
| 20260506165045 | 18 | 264 | 0.0 | 3.2 | 0.00 | 0.00 | 0.00 | 52 | 1020.6 |
| 20260506164525 | 18 | 250 | 0.0 | 1.6 | 0.00 | 0.00 | 0.00 | 49 | 1020.7 |
| 20260506164004 | 17 | 276 | 0.0 | 3.2 | 0.00 | 0.00 | 0.00 | 48 | 1020.6 |
| 20260506163546 | 17 | 355 | 0.0 | 3.2 | 0.00 | 0.00 | 0.00 | 42 | 1020.6 |
| 20260506163024 | 17 | 355 | 0.0 | 3.2 | 0.00 | 0.00 | 0.00 | 38 | 1020.7 |
| 20260506162501 | 17 | 335 | 0.0 | 3.2 | 0.00 | 0.00 | 0.00 | 42 | 1020.7 |
| 20260506162045 | 17 | 269 | 0.0 | 4.8 | 0.00 | 0.00 | 0.00 | 41 | 1020.7 |
| 20260506161525 | 16 | 205 | 0.0 | 4.8 | 0.00 | 0.00 | 0.00 | 43 | 1020.7 |
| 20260506161004 | 16 | 280 | 0.0 | 3.2 | 0.00 | 0.00 | 0.00 | 40 | 1020.7 |
| 20260506160547 | 16 | 236 | 0.0 | 3.2 | 0.00 | 0.00 | 0.00 | 37 | 1020.7 |
| 20260506160025 | 16 | 357 | 0.0 | 3.2 | 0.00 | 0.00 | 0.00 | 35 | 1020.7 |
| 20260506155503 | 16 | 140 | 0.0 | 1.6 | 0.00 | 0.00 | 0.00 | 39 | 1020.7 |
| 20260506155044 | 16 | 214 | 0.0 | 3.2 | 0.00 | 0.00 | 0.00 | 36 | 1020.7 |
| 20260506154523 | 16 | 228 | 0.0 | 4.8 | 0.00 | 0.00 | 0.00 | 36 | 1020.8 |
| 20260506154003 | 16 | 252 | 0.0 | 3.2 | 0.00 | 0.00 | 0.00 | 25 | 1020.7 |
| 20260506153546 | 15 | 9 | 0.0 | 3.2 | 0.00 | 0.00 | 0.00 | 19 | 1020.7 |
| 20260506153034 | 15 | 9 | 0.0 | 3.2 | 0.00 | 0.00 | 0.00 | 18 | 1020.6 |
| 20260506152517 | 15 | 9 | 0.0 | 3.2 | 0.00 | 0.00 | 0.00 | 18 | 1020.7 |
| 20260506152001 | 15 | 20 | 0.0 | 1.6 | 0.00 | 0.00 | 0.00 | 17 | 1020.6 |
| 20260506151545 | 15 | 20 | 0.0 | 1.6 | 0.00 | 0.00 | 0.00 | 10 | 1020.6 |
| 20260506151024 | 15 | 20 | 0.0 | 0.0 | 0.00 | 0.00 | 0.00 | 2 | 1020.6 |
| 20260506150513 | 14 | 20 | 0.0 | 0.0 | 0.00 | 0.00 | 0.00 | 1 | 1020.6 |
| 20260506150056 | 13 | 20 | 0.0 | 0.0 | 0.00 | 0.00 | 0.00 | 1 | 1020.6 |
| 20260506145534 | 13 | 281 | 0.0 | 0.0 | 0.00 | 0.00 | 0.00 | 1 | 1020.6 |
| 20260506145013 | 13 | 281 | 0.0 | 0.0 | 0.00 | 0.00 | 0.00 | 1 | 1020.6 |
| 20260506144603 | 13 | 281 | 0.0 | 0.0 | 0.00 | 0.00 | 0.00 | 1 | 1020.6 |
| 20260506144035 | 13 | 245 | 0.0 | 1.6 | 0.00 | 0.00 | 0.00 | 1 | 1020.6 |
| 20260506143515 | 13 | 245 | 0.0 | 1.6 | 0.00 | 0.00 | 0.00 | 1 | 1020.5 |
| 20260506143059 | 13 | 244 | 0.0 | 0.0 | 0.00 | 0.00 | 0.00 | 1 | 1020.5 |
| 20260506142538 | 13 | 244 | 0.0 | 0.0 | 0.00 | 0.00 | 0.00 | 1 | 1020.4 |
| 20260506142017 | 13 | 244 | 0.0 | 0.0 | 0.00 | 0.00 | 0.00 | 1 | 1020.4 |
| 20260506141600 | 12 | 244 | 0.0 | 0.0 | 0.00 | 0.00 | 0.00 | 1 | 1020.3 |
| 20260506141040 | 12 | 244 | 0.0 | 0.0 | 0.00 | 0.00 | 0.00 | 1 | 1020.3 |
| 20260506140520 | 12 | 244 | 0.0 | 0.0 | 0.00 | 0.00 | 0.00 | 1 | 1020.2 |
| 20260506140104 | 12 | 244 | 0.0 | 0.0 | 0.00 | 0.00 | 0.00 | 1 | 1020.1 |
| 20260506135540 | 12 | 244 | 0.0 | 0.0 | 0.00 | 0.00 | 0.00 | 1 | 1020.0 |
| 20260506135020 | 12 | 244 | 0.0 | 0.0 | 0.00 | 0.00 | 0.00 | 1 | 1020.0 |
| 20260506134603 | 12 | 243 | 0.0 | 0.0 | 0.00 | 0.00 | 0.00 | 1 | 1020.0 |
| 20260506134043 | 12 | 244 | 0.0 | 0.0 | 0.00 | 0.00 | 0.00 | 1 | 1020.0 |
| 20260506133523 | 12 | 244 | 0.0 | 0.0 | 0.00 | 0.00 | 0.00 | 1 | 1020.0 |
| 20260506133002 | 12 | 244 | 0.0 | 0.0 | 0.00 | 0.00 | 0.00 | 1 | 1019.9 |
| 20260506132545 | 12 | 244 | 0.0 | 0.0 | 0.00 | 0.00 | 0.00 | 1 | 1020.0 |
| 20260506132023 | 12 | 244 | 0.0 | 0.0 | 0.00 | 0.00 | 0.00 | 1 | 1019.9 |
| 20260506131501 | 12 | 244 | 0.0 | 0.0 | 0.00 | 0.00 | 0.00 | 1 | 1019.8 |
| 20260506131044 | 12 | 244 | 0.0 | 0.0 | 0.00 | 0.00 | 0.00 | 1 | 1019.8 |
| 20260506130523 | 12 | 244 | 0.0 | 0.0 | 0.00 | 0.00 | 0.00 | 1 | 1019.8 |
| 20260506130106 | 12 | 244 | 0.0 | 0.0 | 0.00 | 0.00 | 0.00 | 1 | 1019.7 |
| 20260506125550 | 12 | 244 | 0.0 | 0.0 | 0.00 | 0.00 | 0.00 | 1 | 1019.8 |
| 20260506125030 | 12 | 244 | 0.0 | 0.0 | 0.00 | 0.00 | 0.00 | 1 | 1019.7 |
| 20260506124509 | 12 | 244 | 0.0 | 0.0 | 0.00 | 0.00 | 0.00 | 1 | 1019.7 |
| 20260506124052 | 12 | 244 | 0.0 | 0.0 | 0.00 | 0.00 | 0.00 | 1 | 1019.7 |
| 20260506123531 | 12 | 244 | 0.0 | 0.0 | 0.00 | 0.00 | 0.00 | 1 | 1019.6 |
| 20260506123010 | 12 | 244 | 0.0 | 0.0 | 0.00 | 0.00 | 0.00 | 1 | 1019.6 |
| 20260506122553 | 12 | 244 | 0.0 | 0.0 | 0.00 | 0.00 | 0.00 | 1 | 1019.6 |
| 20260506122033 | 12 | 244 | 0.0 | 0.0 | 0.00 | 0.00 | 0.00 | 1 | 1019.6 |
| 20260506121512 | 12 | 244 | 0.0 | 0.0 | 0.00 | 0.00 | 0.00 | 1 | 1019.6 |
| 20260506121056 | 12 | 244 | 0.0 | 0.0 | 0.00 | 0.00 | 0.00 | 1 | 1019.6 |
| 20260506120535 | 12 | 244 | 0.0 | 0.0 | 0.00 | 0.00 | 0.00 | 1 | 1019.5 |
| 20260506120018 | 12 | 244 | 0.0 | 0.0 | 0.00 | 0.00 | 0.00 | 1 | 1019.6 |
| 20260506115558 | 12 | 244 | 0.0 | 0.0 | 0.00 | 0.00 | 0.00 | 1 | 1019.5 |
| 20260506115037 | 12 | 244 | 0.0 | 0.0 | 0.00 | 0.00 | 0.00 | 1 | 1019.5 |
| 20260506114531 | 12 | 244 | 0.0 | 0.0 | 0.00 | 0.00 | 0.00 | 1 | 1019.5 |
| 20260506114058 | 12 | 244 | 0.0 | 0.0 | 0.00 | 0.00 | 0.00 | 1 | 1019.4 |
| 20260506113538 | 12 | 244 | 0.0 | 0.0 | 0.00 | 0.00 | 0.00 | 1 | 1019.4 |
| 20260506113019 | 12 | 244 | 0.0 | 0.0 | 0.00 | 0.00 | 0.00 | 1 | 1019.4 |
| 20260506112602 | 12 | 244 | 0.0 | 0.0 | 0.00 | 0.00 | 0.00 | 1 | 1019.3 |
| 20260506112040 | 12 | 244 | 0.0 | 0.0 | 0.00 | 0.00 | 0.00 | 1 | 1019.3 |
| 20260506111519 | 12 | 244 | 0.0 | 0.0 | 0.00 | 0.00 | 0.00 | 1 | 1019.2 |
| 20260506111103 | 12 | 244 | 0.0 | 0.0 | 0.00 | 0.00 | 0.00 | 2 | 1019.1 |
| 20260506110542 | 12 | 244 | 0.0 | 0.0 | 0.00 | 0.00 | 0.00 | 3 | 1019.1 |
| 20260506110024 | 12 | 244 | 0.0 | 0.0 | 0.00 | 0.00 | 0.00 | 4 | 1019.0 |
| 20260506105502 | 12 | 244 | 0.0 | 0.0 | 0.00 | 0.00 | 0.00 | 5 | 1019.1 |
| 20260506105044 | 12 | 244 | 0.0 | 0.0 | 0.00 | 0.00 | 0.00 | 5 | 1019.1 |
| 20260506104523 | 12 | 244 | 0.0 | 0.0 | 0.00 | 0.00 | 0.00 | 6 | 1019.1 |
| 20260506104104 | 12 | 244 | 0.0 | 0.0 | 0.00 | 0.00 | 0.00 | 7 | 1019.1 |
| 20260506103544 | 12 | 244 | 0.0 | 0.0 | 0.00 | 0.00 | 0.00 | 9 | 1019.0 |
| 20260506103023 | 12 | 244 | 0.0 | 0.0 | 0.00 | 0.00 | 0.00 | 11 | 1019.0 |
| 20260506102504 | 12 | 244 | 0.0 | 0.0 | 0.00 | 0.00 | 0.00 | 11 | 1018.9 |
| 20260506102045 | 12 | 244 | 0.0 | 0.0 | 0.00 | 0.00 | 0.00 | 13 | 1018.9 |
| 20260506101524 | 12 | 243 | 0.0 | 0.0 | 0.00 | 0.00 | 0.00 | 13 | 1018.9 |
| 20260506101003 | 12 | 244 | 0.0 | 3.2 | 0.00 | 0.00 | 0.00 | 14 | 1018.8 |
| 20260506100546 | 12 | 244 | 0.0 | 3.2 | 0.00 | 0.00 | 0.00 | 15 | 1018.8 |
| 20260506100026 | 12 | 271 | 0.0 | 3.2 | 0.00 | 0.03 | 0.00 | 15 | 1018.9 |
| 20260506095505 | 12 | 255 | 0.0 | 3.2 | 0.00 | 0.03 | 0.00 | 15 | 1018.8 |
| 20260506095048 | 12 | 305 | 0.0 | 3.2 | 0.00 | 0.03 | 0.00 | 15 | 1018.9 |
| 20260506094527 | 12 | 355 | 0.0 | 1.6 | 0.00 | 0.03 | 0.00 | 14 | 1019.0 |
| 20260506094007 | 12 | 355 | 0.0 | 1.6 | 0.00 | 0.03 | 0.00 | 15 | 1019.0 |
| 20260506093546 | 12 | 355 | 0.0 | 1.6 | 0.00 | 0.03 | 0.00 | 15 | 1019.0 |
| 20260506093027 | 12 | 3 | 0.0 | 0.0 | 0.00 | 0.03 | 0.00 | 15 | 1019.0 |
| 20260506092509 | 12 | 3 | 0.0 | 0.0 | 0.00 | 0.03 | 0.00 | 15 | 1019.0 |
| 20260506092049 | 12 | 3 | 0.0 | 1.6 | 0.00 | 0.03 | 0.00 | 16 | 1019.0 |
| 20260506091528 | 12 | 3 | 0.0 | 1.6 | 0.00 | 0.03 | 0.00 | 17 | 1019.0 |
| 20260506091008 | 12 | 288 | 0.0 | 3.2 | 0.00 | 0.03 | 0.00 | 17 | 1019.0 |
| 20260506090550 | 12 | 107 | 0.0 | 3.2 | 0.00 | 0.03 | 0.00 | 17 | 1019.0 |
| 20260506090030 | 12 | 218 | 0.0 | 4.8 | 0.00 | 0.08 | 0.00 | 18 | 1019.0 |
| 20260506085503 | 12 | 240 | 0.0 | 4.8 | 0.00 | 0.08 | 0.00 | 18 | 1019.0 |
| 20260506085046 | 12 | 289 | 0.0 | 0.0 | 0.00 | 0.08 | 0.00 | 18 | 1019.0 |
| 20260506084526 | 12 | 289 | 0.0 | 3.2 | 0.00 | 0.08 | 0.00 | 18 | 1019.0 |
| 20260506084005 | 12 | 289 | 0.0 | 3.2 | 0.00 | 0.08 | 0.00 | 19 | 1019.0 |
| 20260506083547 | 12 | 286 | 0.0 | 3.2 | 0.00 | 0.08 | 0.00 | 19 | 1019.0 |
| 20260506083028 | 12 | 282 | 0.0 | 4.8 | 0.00 | 0.08 | 0.00 | 19 | 1019.0 |
| 20260506082506 | 12 | 37 | 0.0 | 4.8 | 0.00 | 0.08 | 0.00 | 18 | 1019.0 |
| 20260506082051 | 12 | 325 | 0.0 | 3.2 | 0.00 | 0.08 | 0.00 | 18 | 1018.9 |
| 20260506081529 | 12 | 233 | 0.0 | 3.2 | 0.00 | 0.08 | 0.00 | 19 | 1018.9 |
| 20260506081009 | 12 | 240 | 0.0 | 1.6 | 0.00 | 0.08 | 0.00 | 21 | 1018.9 |
| 20260506080552 | 12 | 245 | 0.0 | 4.8 | 0.00 | 0.08 | 0.00 | 21 | 1018.9 |
| 20260506073030 | 12 | 249 | 1.6 | 4.8 | 0.00 | 0.30 | 0.00 | 23 | 1018.7 |
| 20260506072008 | 12 | 221 | 0.0 | 4.8 | 0.00 | 0.30 | 0.00 | 22 | 1018.7 |
| 20260506071554 | 12 | 187 | 0.0 | 4.8 | 0.00 | 0.30 | 0.00 | 23 | 1018.7 |
| 20260506071024 | 12 | 314 | 0.0 | 4.8 | 0.00 | 0.30 | 0.00 | 23 | 1018.6 |
| 20260506070505 | 12 | 245 | 0.0 | 3.2 | 0.00 | 0.30 | 0.00 | 20 | 1018.7 |
| 20260506062010 | 12 | 253 | 0.0 | 3.2 | 0.00 | 0.33 | 0.30 | 12 | 1018.3 |
| 20260506061553 | 13 | 243 | 0.0 | 3.2 | 0.00 | 0.33 | 0.30 | 9 | 1018.2 |
| 20260506061034 | 13 | 246 | 0.0 | 3.2 | 0.00 | 0.33 | 0.30 | 5 | 1018.2 |
| 20260506060512 | 13 | 262 | 0.0 | 1.6 | 0.00 | 0.33 | 0.30 | 5 | 1018.2 |
| 20260506051033 | 13 | 231 | 1.6 | 8.0 | 0.00 | 0.48 | 0.30 | 1 | 1017.8 |
| 20260506050509 | 13 | 226 | 3.2 | 8.0 | 0.00 | 0.48 | 0.30 | 1 | 1017.8 |
| 20260506045011 | 13 | 188 | 3.2 | 8.0 | 0.00 | 0.64 | 0.30 | 1 | 1017.6 |
| 20260506044555 | 13 | 167 | 1.6 | 4.8 | 0.00 | 0.64 | 0.30 | 1 | 1017.7 |
| 20260506044033 | 13 | 173 | 0.0 | 8.0 | 0.00 | 0.64 | 0.30 | 1 | 1017.5 |
| 20260506043512 | 13 | 168 | 3.2 | 8.0 | 0.00 | 0.64 | 0.30 | 1 | 1017.4 |
| 20260506043104 | 13 | 233 | 1.6 | 8.0 | 0.00 | 0.64 | 0.30 | 1 | 1017.3 |
| 20260506042543 | 13 | 177 | 3.2 | 8.0 | 0.00 | 0.64 | 0.30 | 1 | 1017.3 |
| 20260506042022 | 13 | 181 | 3.2 | 8.0 | 0.00 | 0.64 | 0.30 | 1 | 1017.3 |
| 20260506041606 | 13 | 214 | 3.2 | 8.0 | 0.00 | 0.64 | 0.30 | 1 | 1017.2 |
| 20260506041044 | 13 | 137 | 0.0 | 6.4 | 0.00 | 0.64 | 0.30 | 1 | 1017.2 |
| 20260506040525 | 13 | 171 | 1.6 | 6.4 | 0.00 | 0.64 | 0.30 | 2 | 1017.2 |
| 20260506040002 | 13 | 186 | 1.6 | 6.4 | 0.00 | 0.66 | 0.30 | 2 | 1017.2 |
| 20260506035545 | 13 | 149 | 1.6 | 8.0 | 0.00 | 0.66 | 0.30 | 3 | 1017.1 |
| 20260506035025 | 13 | 141 | 1.6 | 8.0 | 0.00 | 0.66 | 0.30 | 3 | 1017.1 |
| 20260506034503 | 13 | 163 | 1.6 | 6.4 | 0.00 | 0.66 | 0.30 | 5 | 1017.0 |
| 20260506034048 | 13 | 208 | 1.6 | 8.0 | 0.00 | 0.66 | 0.30 | 5 | 1016.9 |
| 20260506033525 | 13 | 165 | 3.2 | 8.0 | 0.00 | 0.66 | 0.30 | 6 | 1016.8 |
| 20260506033005 | 13 | 166 | 0.0 | 4.8 | 0.00 | 0.66 | 0.30 | 7 | 1016.8 |
| 20260506032548 | 13 | 151 | 0.0 | 4.8 | 0.00 | 0.66 | 0.30 | 8 | 1016.7 |
| 20260506032028 | 13 | 217 | 1.6 | 6.4 | 0.00 | 0.66 | 0.30 | 10 | 1016.5 |
| 20260506031516 | 13 | 150 | 3.2 | 6.4 | 0.00 | 0.66 | 0.30 | 13 | 1016.5 |
| 20260506031049 | 13 | 159 | 0.0 | 4.8 | 0.00 | 0.66 | 0.30 | 14 | 1016.4 |
| 20260506030531 | 13 | 252 | 0.0 | 4.8 | 0.00 | 0.66 | 0.30 | 16 | 1016.3 |
| 20260506030021 | 13 | 212 | 0.0 | 6.4 | 0.00 | 0.69 | 0.30 | 18 | 1016.3 |
| 20260506025551 | 13 | 266 | 1.6 | 6.4 | 0.00 | 0.69 | 0.30 | 20 | 1016.2 |
| 20260506025033 | 13 | 226 | 3.2 | 8.0 | 0.00 | 0.69 | 0.30 | 22 | 1016.2 |
| 20260506024520 | 14 | 221 | 0.0 | 8.0 | 0.00 | 0.69 | 0.30 | 23 | 1016.2 |
| 20260506024053 | 14 | 160 | 1.6 | 8.0 | 0.00 | 0.69 | 0.30 | 23 | 1016.1 |
| 20260506023532 | 14 | 160 | 1.6 | 8.0 | 0.00 | 0.69 | 0.30 | 26 | 1016.1 |
| 20260506023012 | 14 | 201 | 1.6 | 8.0 | 0.00 | 0.69 | 0.30 | 28 | 1016.1 |
| 20260506022555 | 14 | 190 | 3.2 | 8.0 | 0.00 | 0.69 | 0.30 | 30 | 1016.1 |
| 20260506022034 | 14 | 186 | 3.2 | 9.7 | 0.00 | 0.69 | 0.30 | 31 | 1016.1 |
| 20260506021513 | 15 | 157 | 1.6 | 11.3 | 0.00 | 0.69 | 0.30 | 31 | 1016.0 |
| 20260506021057 | 15 | 204 | 4.8 | 11.3 | 0.00 | 0.69 | 0.30 | 35 | 1015.9 |
| 20260506020536 | 15 | 145 | 1.6 | 12.9 | 0.00 | 0.69 | 0.30 | 36 | 1015.8 |
| 20260506020015 | 15 | 174 | 3.2 | 12.9 | 0.00 | 0.69 | 0.30 | 36 | 1015.7 |
| 20260506015558 | 15 | 243 | 4.8 | 9.7 | 0.00 | 0.69 | 0.30 | 38 | 1015.6 |
| 20260506015040 | 15 | 236 | 3.2 | 9.7 | 0.00 | 0.69 | 0.30 | 38 | 1015.6 |
| 20260506014514 | 15 | 177 | 0.0 | 11.3 | 0.00 | 0.69 | 0.30 | 35 | 1015.5 |
| 20260506014056 | 15 | 220 | 3.2 | 14.5 | 0.00 | 0.69 | 0.30 | 35 | 1015.5 |
| 20260506013536 | 15 | 155 | 4.8 | 14.5 | 0.00 | 0.69 | 0.30 | 39 | 1015.5 |
| 20260506013016 | 15 | 288 | 3.2 | 9.7 | 0.00 | 0.69 | 0.30 | 37 | 1015.5 |
| 20260506012559 | 15 | 203 | 3.2 | 9.7 | 0.00 | 0.69 | 0.30 | 37 | 1015.5 |
| 20260506012039 | 15 | 161 | 1.6 | 9.7 | 0.00 | 0.69 | 0.30 | 35 | 1015.5 |
| 20260506011529 | 15 | 229 | 1.6 | 9.7 | 0.00 | 0.69 | 0.30 | 34 | 1015.6 |
| 20260506011101 | 15 | 229 | 3.2 | 9.7 | 0.00 | 0.69 | 0.30 | 37 | 1015.6 |
| 20260506010540 | 16 | 285 | 1.6 | 8.0 | 0.00 | 0.69 | 0.30 | 38 | 1015.6 |
| 20260506010020 | 16 | 219 | 0.0 | 6.4 | 0.00 | 0.69 | 0.30 | 34 | 1015.6 |
| 20260506005603 | 16 | 233 | 1.6 | 6.4 | 0.00 | 0.69 | 0.30 | 36 | 1015.5 |
| 20260506005042 | 16 | 169 | 1.6 | 4.8 | 0.00 | 0.69 | 0.30 | 36 | 1015.5 |
| 20260506004540 | 16 | 225 | 1.6 | 6.4 | 0.00 | 0.69 | 0.30 | 34 | 1015.5 |
| 20260506004001 | 15 | 319 | 0.0 | 8.0 | 0.00 | 0.69 | 0.30 | 33 | 1015.4 |
| 20260506003544 | 15 | 211 | 3.2 | 6.4 | 0.00 | 0.69 | 0.30 | 33 | 1015.4 |
| 20260506003032 | 15 | 237 | 1.6 | 9.7 | 0.00 | 0.69 | 0.30 | 32 | 1015.4 |
| 20260506002504 | 15 | 151 | 1.6 | 11.3 | 0.00 | 0.69 | 0.30 | 31 | 1015.3 |
| 20260506002045 | 15 | 144 | 3.2 | 12.9 | 0.00 | 0.69 | 0.30 | 27 | 1015.3 |
| 20260506001526 | 15 | 160 | 6.4 | 12.9 | 0.00 | 0.69 | 0.30 | 30 | 1015.3 |
| 20260506001005 | 15 | 117 | 6.4 | 14.5 | 0.00 | 0.69 | 0.30 | 31 | 1015.2 |
| 20260506000548 | 15 | 131 | 8.0 | 16.1 | 0.00 | 0.69 | 0.30 | 29 | 1015.2 |
| 20260506000027 | 15 | 172 | 6.4 | 19.3 | 0.00 | 0.69 | 0.30 | 29 | 1015.3 |
| 20260505235506 | 15 | 179 | 8.0 | 19.3 | 0.00 | 0.69 | 0.30 | 27 | 1015.2 |
| 20260505235049 | 16 | 228 | 3.2 | 9.7 | 0.00 | 0.69 | 0.30 | 27 | 1015.2 |
| 20260505234528 | 16 | 160 | 1.6 | 11.3 | 0.00 | 0.69 | 0.30 | 28 | 1015.2 |
| 20260505234008 | 16 | 229 | 3.2 | 14.5 | 0.00 | 0.69 | 0.30 | 27 | 1015.3 |
| 20260505233550 | 15 | 240 | 3.2 | 14.5 | 0.00 | 0.69 | 0.30 | 29 | 1015.3 |
| 20260505233030 | 15 | 155 | 4.8 | 12.9 | 0.00 | 0.69 | 0.30 | 30 | 1015.3 |
| 20260505232518 | 15 | 160 | 6.4 | 16.1 | 0.00 | 0.69 | 0.30 | 30 | 1015.3 |
| 20260505232102 | 15 | 121 | 4.8 | 19.3 | 0.00 | 0.69 | 0.30 | 26 | 1015.3 |
| 20260505231541 | 15 | 220 | 9.7 | 19.3 | 0.00 | 0.69 | 0.30 | 32 | 1015.3 |
| 20260505231020 | 15 | 139 | 9.7 | 16.1 | 0.00 | 0.69 | 0.30 | 30 | 1015.3 |
| 20260505230604 | 16 | 208 | 8.0 | 19.3 | 0.00 | 0.69 | 0.30 | 36 | 1015.3 |
| 20260505230048 | 16 | 121 | 9.7 | 19.3 | 0.00 | 0.69 | 0.30 | 40 | 1015.2 |
| 20260505225521 | 16 | 185 | 8.0 | 19.3 | 0.00 | 0.69 | 0.30 | 40 | 1015.2 |
| 20260505225001 | 16 | 174 | 8.0 | 19.3 | 0.00 | 0.69 | 0.30 | 42 | 1015.2 |
| 20260505224547 | 17 | 180 | 6.4 | 12.9 | 0.00 | 0.69 | 0.30 | 44 | 1015.3 |
| 20260505224021 | 17 | 152 | 1.6 | 8.0 | 0.00 | 0.69 | 0.30 | 45 | 1015.3 |
| 20260505223502 | 17 | 167 | 1.6 | 14.5 | 0.00 | 0.69 | 0.30 | 46 | 1015.3 |
| 20260505223047 | 17 | 224 | 1.6 | 14.5 | 0.00 | 0.69 | 0.30 | 45 | 1015.3 |
| 20260505222524 | 17 | 224 | 3.2 | 14.5 | 0.00 | 0.69 | 0.30 | 46 | 1015.3 |
| 20260505222003 | 17 | 175 | 4.8 | 14.5 | 0.00 | 0.69 | 0.30 | 44 | 1015.3 |
| 20260505221547 | 17 | 143 | 4.8 | 16.1 | 0.00 | 0.69 | 0.30 | 46 | 1015.3 |
| 20260505221026 | 17 | 226 | 4.8 | 16.1 | 0.00 | 0.69 | 0.30 | 46 | 1015.3 |
| 20260505220504 | 17 | 239 | 1.6 | 11.3 | 0.00 | 0.69 | 0.30 | 49 | 1015.4 |
| 20260505220048 | 17 | 225 | 3.2 | 11.3 | 0.00 | 0.69 | 0.30 | 49 | 1015.4 |
| 20260505215527 | 17 | 219 | 3.2 | 8.0 | 0.00 | 0.69 | 0.30 | 50 | 1015.4 |
| 20260505215006 | 17 | 214 | 1.6 | 6.4 | 0.00 | 0.69 | 0.30 | 51 | 1015.5 |
| 20260505214550 | 17 | 184 | 0.0 | 6.4 | 0.00 | 0.69 | 0.30 | 50 | 1015.5 |
| 20260505214028 | 17 | 246 | 1.6 | 8.0 | 0.00 | 0.69 | 0.30 | 50 | 1015.6 |
| 20260505213512 | 17 | 217 | 1.6 | 6.4 | 0.00 | 0.69 | 0.30 | 51 | 1015.6 |
| 20260505213051 | 17 | 345 | 1.6 | 6.4 | 0.00 | 0.69 | 0.30 | 49 | 1015.6 |
| 20260505212533 | 18 | 285 | 1.6 | 6.4 | 0.00 | 0.69 | 0.30 | 50 | 1015.6 |
| 20260505212010 | 18 | 238 | 0.0 | 3.2 | 0.00 | 0.69 | 0.30 | 50 | 1015.6 |
| 20260505211554 | 18 | 243 | 0.0 | 4.8 | 0.00 | 0.69 | 0.30 | 48 | 1015.6 |
| 20260505211033 | 17 | 158 | 1.6 | 6.4 | 0.00 | 0.69 | 0.30 | 46 | 1015.6 |
| 20260505210513 | 17 | 177 | 1.6 | 8.0 | 0.00 | 0.69 | 0.30 | 48 | 1015.6 |
| 20260505210058 | 17 | 223 | 3.2 | 11.3 | 0.00 | 0.69 | 0.30 | 46 | 1015.6 |
| 20260505205538 | 17 | 129 | 3.2 | 11.3 | 0.00 | 0.69 | 0.30 | 46 | 1015.7 |
| 20260505205014 | 16 | 159 | 1.6 | 12.9 | 0.00 | 0.69 | 0.30 | 42 | 1015.6 |
| 20260505204557 | 16 | 116 | 4.8 | 14.5 | 0.00 | 0.69 | 0.30 | 41 | 1015.7 |
| 20260505204037 | 16 | 153 | 6.4 | 14.5 | 0.00 | 0.69 | 0.30 | 41 | 1015.7 |
| 20260505203512 | 17 | 285 | 4.8 | 12.9 | 0.00 | 0.69 | 0.30 | 47 | 1015.7 |
| 20260505203058 | 17 | 323 | 0.0 | 4.8 | 0.00 | 0.69 | 0.30 | 42 | 1015.7 |
| 20260505202535 | 17 | 229 | 0.0 | 4.8 | 0.00 | 0.69 | 0.30 | 46 | 1015.7 |
| 20260505202015 | 17 | 322 | 0.0 | 6.4 | 0.00 | 0.69 | 0.30 | 44 | 1015.7 |
| 20260505201557 | 17 | 324 | 0.0 | 4.8 | 0.00 | 0.69 | 0.30 | 46 | 1015.8 |
| 20260505201037 | 17 | 341 | 0.0 | 3.2 | 0.00 | 0.69 | 0.30 | 43 | 1015.8 |
| 20260505200517 | 17 | 328 | 0.0 | 6.4 | 0.00 | 0.69 | 0.30 | 45 | 1015.9 |
| 20260505200059 | 17 | 257 | 1.6 | 6.4 | 0.00 | 0.69 | 0.30 | 48 | 1015.9 |
| 20260505195539 | 16 | 333 | 0.0 | 3.2 | 0.00 | 0.69 | 0.30 | 42 | 1015.8 |
| 20260505195016 | 17 | 17 | 0.0 | 3.2 | 0.00 | 0.69 | 0.30 | 40 | 1015.8 |
| 20260505194602 | 16 | 27 | 0.0 | 1.6 | 0.00 | 0.69 | 0.30 | 42 | 1015.9 |
| 20260505194043 | 16 | 333 | 0.0 | 4.8 | 0.00 | 0.69 | 0.30 | 42 | 1016.0 |
| 20260505193520 | 16 | 333 | 0.0 | 4.8 | 0.00 | 0.69 | 0.30 | 41 | 1016.0 |
| 20260505193130 | 16 | 334 | 0.0 | 3.2 | 0.00 | 0.69 | 0.30 | 40 | 1015.9 |
| 20260505192540 | 16 | 282 | 0.0 | 11.3 | 0.00 | 0.69 | 0.30 | 47 | 1016.0 |
| 20260505192021 | 16 | 276 | 0.0 | 11.3 | 0.00 | 0.69 | 0.30 | 45 | 1016.0 |
| 20260505191507 | 16 | 351 | 0.0 | 6.4 | 0.00 | 0.69 | 0.30 | 43 | 1016.0 |
| 20260505191051 | 16 | 320 | 0.0 | 6.4 | 0.00 | 0.69 | 0.30 | 41 | 1016.0 |
| 20260505190529 | 16 | 269 | 0.0 | 4.8 | 0.00 | 0.69 | 0.30 | 41 | 1016.0 |
| 20260505190009 | 16 | 353 | 0.0 | 3.2 | 0.00 | 0.69 | 0.30 | 38 | 1015.9 |
| 20260505185552 | 16 | 321 | 0.0 | 6.4 | 0.00 | 0.69 | 0.30 | 33 | 1015.9 |
| 20260505185031 | 16 | 313 | 0.0 | 6.4 | 0.00 | 0.69 | 0.30 | 34 | 1015.9 |
| 20260505184526 | 16 | 226 | 0.0 | 4.8 | 0.00 | 0.69 | 0.30 | 36 | 1015.8 |
| 20260505184102 | 16 | 349 | 1.6 | 4.8 | 0.00 | 0.69 | 0.30 | 32 | 1015.8 |
| 20260505183541 | 15 | 221 | 1.6 | 4.8 | 0.00 | 0.69 | 0.30 | 31 | 1015.7 |
| 20260505183023 | 15 | 18 | 0.0 | 4.8 | 0.00 | 0.69 | 0.30 | 21 | 1015.8 |
| 20260505182603 | 15 | 300 | 0.0 | 4.8 | 0.00 | 0.69 | 0.30 | 18 | 1015.8 |
| 20260505182042 | 15 | 321 | 1.6 | 6.4 | 0.00 | 0.69 | 0.30 | 17 | 1015.9 |
| 20260505181521 | 14 | 312 | 1.6 | 4.8 | 0.00 | 0.69 | 0.30 | 7 | 1015.8 |
| 20260505181107 | 14 | 316 | 1.6 | 4.8 | 0.00 | 0.69 | 0.30 | 7 | 1015.8 |
| 20260505180542 | 13 | 354 | 0.0 | 3.2 | 0.00 | 0.69 | 0.30 | 1 | 1015.8 |